Home   Weather   Kailua-Kona   Past weeks

Flag for USA Past Weather in Kailua-Kona, Hawaii, USA — Yesterday and Last 2 Weeks

Now
81 °F

Scattered clouds.


Feels Like: 83 °F
Forecast: 67 / 76 °F
Wind: 14 mph from Southwest

Location: Keahole Airport

Current Time: Jan 16, 2017 at 3:00:21 pm

Latest Report: Jan 16, 2017 at 1:53 pm


Visibility: 10 mi

Pressure: 29.97 "Hg

Humidity: 58%

Dew Point: 65 °F

Location of Kailua-KonaLocation

Past Weather in Kailua-Kona — Graph

°F

Kailua-Kona Temperature Yesterday

Maximum temperature yesterday: 82 °F (at 1:53 pm)
Minimum temperature yesterday: 69 °F (at 3:53 am)
Average temperature yesterday: 76 °F

High & Low Weather Summary for the Past Weeks

 TemperatureHumidityPressure
High84 °F (Jan 14, 10:53 am)90% (Jan 15, 5:53 am)30.10 "Hg (Jan 15, 5:53 am)
Low63 °F (Jan 7, 6:53 am)44% (Jan 3, 4:53 pm)29.85 "Hg (Jan 1, 2:53 pm)
Average75 °F68%29.98 "Hg
* Reported Jan 1 1:53 pm — Jan 16 1:53 pm, Kailua-Kona, Weather by CustomWeather, © 2017

Note: Actual official high and low records may vary slightly from our data, if they occured in-between our weather recording intervals... More about our weather records

Advertising

Kailua-Kona Weather History for the Previous 24 Hours

Scroll right to see more
 ConditionsComfort  
Time TempWeatherWind HumidityBarometerVisibility
1:53 pm
Mon, Jan 16
81 °FScattered clouds.14 mph58%29.97 "Hg10 mi
12:53 pm81 °FScattered clouds.13 mph56%30.00 "Hg10 mi
11:53 am80 °FScattered clouds.12 mph60%30.02 "Hg10 mi
10:53 am80 °FScattered clouds.7 mph56%30.06 "Hg10 mi
9:53 am78 °FScattered clouds.No wind60%30.07 "Hg10 mi
8:53 am77 °FPassing clouds.3 mph64%30.06 "Hg10 mi
7:53 am70 °FScattered clouds.No wind81%30.05 "Hg10 mi
6:53 am69 °FPassing clouds.5 mph81%30.04 "Hg10 mi
5:53 am70 °FPassing clouds.5 mph81%30.02 "Hg10 mi
4:53 am70 °FClear.5 mph81%30.01 "Hg10 mi
3:53 am69 °FPassing clouds.5 mph81%30.02 "Hg10 mi
2:53 am69 °FClear.5 mph76%30.02 "Hg10 mi
1:53 am70 °FClear.5 mph76%30.03 "Hg10 mi
12:53 am71 °FClear.3 mph71%30.03 "Hg10 mi
11:53 pm
Sun, Jan 15
71 °FClear.5 mph78%30.04 "Hg10 mi
10:53 pm73 °FClear.3 mph76%30.07 "Hg10 mi
9:53 pm74 °FPassing clouds.3 mph76%30.08 "Hg10 mi
8:53 pm74 °FPassing clouds.6 mph79%30.07 "Hg10 mi
7:53 pm76 °FPassing clouds.No wind80%30.05 "Hg10 mi
6:53 pm77 °FClear.6 mph77%30.04 "Hg10 mi
5:53 pm79 °FScattered clouds.5 mph62%30.03 "Hg10 mi
4:53 pm80 °FOvercast.9 mph60%30.01 "Hg10 mi
3:53 pm81 °FPartly sunny.12 mph58%29.98 "Hg10 mi
Weather by CustomWeather, © 2017

See weather overviewHow to use our weather pages